(118207) = 1995 SJ10 = 1998 QU111 = 2004 HY60

Discovered at Kitt Peak on 1995-09-17 by Spacewatch.

Orbit

Orbit type: Main Belt

Note: WebGL enabled browser required.

epoch2024-03-31.0
epoch JD2460400.5
perihelion date2023-12-20.73896
perihelion JD2460299.23896
argument of perihelion (°)109.06504
ascending node (°)119.06949
inclination (°)0.73435
eccentricity0.0709315
perihelion distance (AU)2.0427180
Tisserand w.r.t. Jupiter3.7
ΔV w.r.t. Earth (km/sec)8.8
semimajor axis (AU)2.1986731
mean anomaly (°)30.61295
mean daily motion (°/day)0.30231720
aphelion distance (AU)2.355
period (years)3.26
P-vector [x]-0.66731612
P-vector [y]-0.68804538
P-vector [z]-0.28510130
Q-vector [x]0.74469034
Q-vector [y]-0.61065954
Q-vector [z]-0.26931620
absolute magnitude17.45
phase slope0.15
uncertainty0
referenceMPEC 2024-E133
observations used426
oppositions17
arc length (days)11136
first opposition used1992
last opposition used2023
residual rms (arc-secs)0.72
perturbers coarse indicatorM-v
perturbers precise indicator003Ek
first observation date used1992-10-20.0
last observation date used2023-04-17.0
computer nameMPCLINUX
Minimum Orbit Intersection Distances (in AU)
for orbit epoch: 2460400.5, reference: E2024-ED3
Mercury1.58401
Venus1.31891
Earth1.0326
Mars0.43451
Jupiter2.61388
Saturn6.72005
Uranus16.3028
Neptune27.4727

Observations

443 total observations over interval: 1992 10 20.37401 – 2023 04 17.238572
These data are available for download (format description).

Date (UT) J2000 RA J2000 Dec Magn Location Ref
1992 10 20.37401 01 58 26.63 +10 44 06.0   691 – Steward Observatory, Kitt Peak-Spacewatch MPS 106637
1992 10 20.42886 01 58 23.12 +10 43 46.8 19.9 V 691 – Steward Observatory, Kitt Peak-Spacewatch MPS 106637
1992 10 20.45045 01 58 21.69 +10 43 39.6   691 – Steward Observatory, Kitt Peak-Spacewatch MPS 106637
1995 09 17.34590 23 43 41.15 -02 56 42.4 19.9 V 691 – Steward Observatory, Kitt Peak-Spacewatch MPC 25813
1995 09 17.36693 23 43 39.87 -02 56 51.1   691 – Steward Observatory, Kitt Peak-Spacewatch MPC 25813
1995 09 17.38790 23 43 38.60 -02 56 59.4   691 – Steward Observatory, Kitt Peak-Spacewatch MPC 25813
1995 09 22.29824 23 38 51.43 -03 28 49.3 20.4 V 691 – Steward Observatory, Kitt Peak-Spacewatch MPC 25813
1995 09 22.31908 23 38 50.18 -03 28 57.5   691 – Steward Observatory, Kitt Peak-Spacewatch MPC 25813
1995 09 22.33998 23 38 48.92 -03 29 05.9   691 – Steward Observatory, Kitt Peak-Spacewatch MPC 25813
1995 09 27.19866 23 34 13.88 -03 59 07.9 20.6 V 691 – Steward Observatory, Kitt Peak-Spacewatch MPC 25813
1995 09 27.21949 23 34 12.73 -03 59 15.3   691 – Steward Observatory, Kitt Peak-Spacewatch MPC 25813
1995 09 27.24061 23 34 11.47 -03 59 23.3   691 – Steward Observatory, Kitt Peak-Spacewatch MPC 25813
1998 08 20.24092 20 57 58.59 -17 39 47.6 20.3 V 691 – Steward Observatory, Kitt Peak-Spacewatch MPS 106637
1998 08 20.26500 20 57 57.20 -17 39 53.0 20.6 V 691 – Steward Observatory, Kitt Peak-Spacewatch MPS 106637
1998 08 20.28678 20 57 55.98 -17 39 58.4 20.5 V 691 – Steward Observatory, Kitt Peak-Spacewatch MPS 106637
1998 08 31.20588 20 49 23.41 -18 17 40.7 19.7 V 691 – Steward Observatory, Kitt Peak-Spacewatch MPC 54281
1998 08 31.21598 20 49 23.04 -18 17 42.5 20.0 V 691 – Steward Observatory, Kitt Peak-Spacewatch MPC 54281
1998 08 31.22525 20 49 22.61 -18 17 44.0 20.4 V 691 – Steward Observatory, Kitt Peak-Spacewatch MPC 54281
2002 11 23.30378 03 46 31.87 +18 47 25.0 20.7   644 – Palomar Mountain/NEAT MPS 106637
2002 11 23.32528 03 46 30.38 +18 47 20.4 20.2   644 – Palomar Mountain/NEAT MPS 106637
2002 11 23.34850 03 46 28.71 +18 47 16.3 20.7   644 – Palomar Mountain/NEAT MPS 106637
2004 04 24.28555 14 24 34.45 -12 50 13.2 19.1 V 691 – Steward Observatory, Kitt Peak-Spacewatch MPS 106357
2004 04 24.32145 14 24 32.22 -12 50 02.8 19.2 V 691 – Steward Observatory, Kitt Peak-Spacewatch MPS 106357
2004 04 24.37970 14 24 28.59 -12 49 45.3 19.1 V 691 – Steward Observatory, Kitt Peak-Spacewatch MPS 106357
2004 04 29.43220 14 19 27.75 -12 24 48.6 19.7   608 – Haleakala-AMOS MPS 106357
2004 04 29.44284 14 19 27.08 -12 24 45.5 19.8   608 – Haleakala-AMOS MPS 106357
2004 04 29.45399 14 19 26.38 -12 24 42.5 20.3   608 – Haleakala-AMOS MPS 106357
2004 05 27.17784 13 58 01.28 -10 42 55.8 20.0 V 691 – Steward Observatory, Kitt Peak-Spacewatch MPS 108025
2004 05 27.20949 13 58 00.39 -10 42 52.8 20.2 V 691 – Steward Observatory, Kitt Peak-Spacewatch MPS 108025
2004 05 27.23688 13 57 59.65 -10 42 50.0 20.0 V 691 – Steward Observatory, Kitt Peak-Spacewatch MPS 108025
2005 09 29.36359 01 52 39.79 +10 15 29.4 20.0 V G96 – Mt. Lemmon Survey MPS 142415
2005 09 29.37157 01 52 39.36 +10 15 26.7 20.1 V G96 – Mt. Lemmon Survey MPS 142415
2005 09 29.37953 01 52 38.96 +10 15 24.5 20.3 V G96 – Mt. Lemmon Survey MPS 142415
2005 09 29.38748 01 52 38.53 +10 15 22.3 20.1 V G96 – Mt. Lemmon Survey MPS 142415
2005 10 01.34252 01 51 00.93 +10 05 45.1 20.5 V 691 – Steward Observatory, Kitt Peak-Spacewatch MPS 143230
2005 10 01.35996 01 51 00.00 +10 05 39.8 20.5 V 691 – Steward Observatory, Kitt Peak-Spacewatch MPS 143230
2005 10 01.37733 01 50 59.07 +10 05 34.7 20.5 V 691 – Steward Observatory, Kitt Peak-Spacewatch MPS 143230
2005 10 25.14966 01 27 38.58 +07 49 31.6 20.9 V 691 – Steward Observatory, Kitt Peak-Spacewatch MPS 145753
2005 10 25.16497 01 27 37.63 +07 49 26.5 20.7 V 691 – Steward Observatory, Kitt Peak-Spacewatch MPS 145753
2005 10 25.18045 01 27 36.70 +07 49 21.2 20.6 V 691 – Steward Observatory, Kitt Peak-Spacewatch MPS 145753
2005 10 28.26006 01 24 37.29 +07 32 07.0 20.6 V G96 – Mt. Lemmon Survey MPS 145753
2005 10 28.26579 01 24 36.93 +07 32 05.4 20.3 V G96 – Mt. Lemmon Survey MPS 145753
2005 10 28.27142 01 24 36.61 +07 32 03.4 20.5 V G96 – Mt. Lemmon Survey MPS 145753
2005 10 28.27692 01 24 36.28 +07 32 01.5 20.2 V G96 – Mt. Lemmon Survey MPS 145753
2007 02 09.47915 11 39 21.57 +03 07 01.7   691 – Steward Observatory, Kitt Peak-Spacewatch MPS 199279
2007 02 09.49748 11 39 21.04 +03 07 05.0   691 – Steward Observatory, Kitt Peak-Spacewatch MPS 199279
2007 02 09.51271 11 39 20.60 +03 07 08.1   691 – Steward Observatory, Kitt Peak-Spacewatch MPS 199279
2007 02 17.34797 11 34 58.94 +03 40 20.1   691 – Steward Observatory, Kitt Peak-Spacewatch MPS 201283
2007 02 17.36636 11 34 58.15 +03 40 25.9   691 – Steward Observatory, Kitt Peak-Spacewatch MPS 201283
2007 02 17.38450 11 34 57.37 +03 40 31.0   691 – Steward Observatory, Kitt Peak-Spacewatch MPS 201283
2007 02 21.36794 11 32 04.24 +04 01 30.7 19.8 V 691 – Steward Observatory, Kitt Peak-Spacewatch MPS 201283
2007 02 21.38979 11 32 03.15 +04 01 37.8 19.9 V 691 – Steward Observatory, Kitt Peak-Spacewatch MPS 201283
2007 02 21.40795 11 32 02.27 +04 01 44.1 19.9 V 691 – Steward Observatory, Kitt Peak-Spacewatch MPS 201283
2007 02 25.38395 11 28 47.01 +04 24 53.4 19.8 V 691 – Steward Observatory, Kitt Peak-Spacewatch MPS 202199
2007 02 25.40165 11 28 46.04 +04 24 59.6 19.8 V 691 – Steward Observatory, Kitt Peak-Spacewatch MPS 202199
2007 02 25.41934 11 28 45.11 +04 25 06.2 19.8 V 691 – Steward Observatory, Kitt Peak-Spacewatch MPS 202199
2007 03 08.37980 11 18 28.51 +05 35 48.9 19.8 R 644 – Palomar Mountain/NEAT MPS 206684
2007 03 08.40022 11 18 27.23 +05 35 57.2 19.7 R 644 – Palomar Mountain/NEAT MPS 206684
2007 03 08.42064 11 18 26.00 +05 36 05.1 19.8 R 644 – Palomar Mountain/NEAT MPS 206684
2007 03 09.26292 11 17 36.38 +05 41 41.9 19.4 V 703 – Catalina Sky Survey MPS 202747
2007 03 09.27106 11 17 35.73 +05 41 45.5 19.8 V 703 – Catalina Sky Survey MPS 202747
2007 03 09.27917 11 17 35.30 +05 41 48.5 20.5 V 703 – Catalina Sky Survey MPS 202747
2007 03 09.28728 11 17 34.72 +05 41 51.9 20.0 V 703 – Catalina Sky Survey MPS 202747
2007 03 10.38156 11 16 29.46 +05 49 07.6 19.8 V G96 – Mt. Lemmon Survey MPS 202747
2007 03 10.39098 11 16 28.84 +05 49 11.5 19.8 V G96 – Mt. Lemmon Survey MPS 202747
2007 03 10.40052 11 16 28.27 +05 49 15.4 20.0 V G96 – Mt. Lemmon Survey MPS 202747
2007 03 10.40994 11 16 27.69 +05 49 18.6 19.6 V G96 – Mt. Lemmon Survey MPS 202747
2007 03 17.24278 11 09 45.05 +06 33 39.7 19.1 R 699 – Lowell Observatory-LONEOS MPS 205394
2007 03 17.26470 11 09 43.79 +06 33 48.2   699 – Lowell Observatory-LONEOS MPS 205394
2007 03 17.27559 11 09 43.05 +06 33 52.0 19.3 C 704 – Lincoln Laboratory ETS, New Mexico MPS 291211
2007 03 17.28617 11 09 42.37 +06 33 54.3 19.6 C 704 – Lincoln Laboratory ETS, New Mexico MPS 291211
2007 03 17.28659 11 09 42.47 +06 33 55.6   699 – Lowell Observatory-LONEOS MPS 205394
2007 03 17.29687 11 09 41.78 +06 33 59.2 19.2 C 704 – Lincoln Laboratory ETS, New Mexico MPS 291211
2007 03 17.30753 11 09 41.13 +06 34 01.3 19.6 C 704 – Lincoln Laboratory ETS, New Mexico MPS 291211
2007 03 17.30850 11 09 41.12 +06 34 03.9   699 – Lowell Observatory-LONEOS MPS 205394
2007 03 25.26380 11 02 29.58 +07 20 12.4 19.4 V G96 – Mt. Lemmon Survey MPS 205902
2007 03 25.26993 11 02 29.32 +07 20 14.0 19.4 V G96 – Mt. Lemmon Survey MPS 205902
2007 03 25.27598 11 02 28.96 +07 20 15.9 19.7 V G96 – Mt. Lemmon Survey MPS 205902
2007 03 25.28216 11 02 28.64 +07 20 18.0 19.6 V G96 – Mt. Lemmon Survey MPS 205902
2007 04 14.24913 10 51 13.03 +08 28 15.6 20.4 V G96 – Mt. Lemmon Survey MPS 207817
2007 04 14.25409 10 51 12.92 +08 28 15.7 20.4 V G96 – Mt. Lemmon Survey MPS 207817
2007 04 14.25903 10 51 12.85 +08 28 15.9 20.6 V G96 – Mt. Lemmon Survey MPS 207817
2007 04 14.26397 10 51 12.74 +08 28 16.7 20.6 V G96 – Mt. Lemmon Survey MPS 207817
2008 09 06.32927 23 26 05.38 -04 43 56.9 19.7 V G96 – Mt. Lemmon Survey MPS 256354
2008 09 06.33585 23 26 04.95 -04 43 59.5 19.8 V G96 – Mt. Lemmon Survey MPS 256354
2008 09 06.34265 23 26 04.56 -04 44 02.1 19.9 V G96 – Mt. Lemmon Survey MPS 256354
2008 09 06.34920 23 26 04.16 -04 44 04.7 19.6 V G96 – Mt. Lemmon Survey MPS 256354
2008 09 06.35517 23 26 03.80 -04 44 07.1 19.9 V G96 – Mt. Lemmon Survey MPS 256354
2008 09 06.36309 23 26 03.33 -04 44 10.1 19.8 V G96 – Mt. Lemmon Survey MPS 256354
